Vorticity
8 7 7 5 5 9 8 8 9 9 7 9 8 6 8 7 6 4 3 8 9 9 9 12 8 7 10 14 11 9 4 6 9 9 10 8 8 9
7 9 9 10 6 7 6 5 5 5 5 7 9 8 10 9 9 9 8 7 10 8 8 8 8 8 11 11 9 6 4 5 7 9 9 9 8 7
7 8 10 9 9 9 7 8 9 7 6 7 10 10 10 9 8 8 8 8 8 7 8 8 9 6 8 9 7 5 5 5 6 5 7 8 8 8
7 7 7 9 10 9 8 7 7 8 6 7 8 7 7 6 7 7 7 4 6 5 6 8 8 7 7 9 7 7 5 5 5 5 6 4 4 4
5 5 7 7 6 8 7 8 7 9 8 6 5 7 9 9 9 8 7 7 8 7 7 4 4 5 5 7 7 5 4 8 7 4 4 5 4 2
4 4 2 4 10 4 6 6 6 8 4 3 10 9 8 8 7 7 8 7 7 7 9 9 8 8 5 6 7 6 7 5 4 6 7 5 4 4
4 9 8 9 16 -1 9 32 11 8 34 5 6 9 7 7 7 1 5 7 8 8 6 8 8 10 7 8 9 8 7 7 7 6 5 7 7 6
15 16 11 11 8 12 2 6 0 7 13 4 4 6 -0 15 7 7 5 5 5 4 3 4 2 4 5 5 6 6 5 6 8 8 8 8 6 10
-1 4 8 8 -18 14 11 3 2 2 6 5 4 7 4 4 5 4 4 3 6 8 7 7 5 4 4 3 3 2 3 4 6 5 5 8 8 7
24 7 27 -2 -2 7 10 4 20 6 6 4 3 13 8 2 5 7 3 8 3 6 9 9 6 5 5 6 4 5 4 4 6 6 6 7 6 6
3 11 1 17 0 -0 1 16 18 10 4 6 5 3 5 13 13 9 7 4 9 6 5 5 2 2 3 1 2 3 6 3 0 6 8 5 8 14
8 7 5 15 4 4 -1 7 14 17 21 18 13 10 11 14 25 20 10 10 15 14 19 21 25 26 22 14 8 5 5 6 9 6 8 11 14 13
6 11 8 12 6 2 1 6 4 7 8 10 8 6 7 7 9 14 17 16 20 16 9 11 11 13 14 21 20 17 18 18 15 16 16 12 11 10
3 2 3 4 5 8 8 7 7 13 9 7 11 8 11 13 10 11 10 11 9 10 8 7 7 7 7 7 8 8 6 4 2 0 1 2 2 2
2 2 1 -0 2 3 6 8 9 4 5 8 8 8 7 7 7 8 7 6 8 6 5 5 5 5 4 5 5 4 2 4 3 -0 -0 -1 1 3
10 8 7 7 11 6 6 7 6 8 7 6 6 7 7 8 6 5 7 5 1 1 3 4 3 4 4 -2 -4 -0 -0 -3 -2 -2 -3 -3 -1 2
8 9 5 4 -2 9 7 9 8 10 8 10 7 9 10 8 5 5 4 4 5 6 4 3 2 1 4 4 5 6 7 5 7 7 9 8 13 5
8 8 9 9 8 5 6 4 5 8 15 6 2 9 12 11 11 10 6 4 10 14 11 4 6 9 7 6 5 3 8 8 8 9 8 6 11 14
6 8 9 12 13 12 12 12 13 13 14 12 16 6 -11 -9 -4 -12 -13 -10 -12 -0 -6 8 11 11 14 13 15 13 14 15 13 14 15 16 15 9
19 19 16 13 11 9 9 10 8 14 11 17 10 2 13 14 15 14 14 16 20 15 15 11 10 11 12 11 10 9 10 11 10 11 11 10 10 10
12 14 16 16 14 12 12 11 12 12 12 12 12 13 13 13 12 13 12 12 12 11 12 14 11 12 8 4 3 5 8 9 11 9 10 11 13 12
4 5 4 5 7 9 12 16 18 17 15 14 13 12 11 12 12 12 12 12 13 11 6 6 5 6 6 7 12 14 16 14 16 22 24 25 26 25
9 8 10 12 12 11 11 11 9 7 7 7 9 11 10 10 12 10 10 9 7 7 8 8 7 12 14 15 16 18 19 19 16 17 23 17 13 15
Height
5946 5946 5946 5946 5947 5947 5946 5944 5943 5942 5941 5941 5939 5938 5937 5936 5934 5933 5932 5931 5930 5928 5927 5925 5921 5919 5917 5914 5912 5910 5909 5906 5904 5902 5899 5897 5895 5893
5943 5944 5944 5944 5944 5944 5943 5942 5941 5940 5940 5939 5938 5936 5935 5934 5932 5931 5929 5929 5929 5926 5924 5923 5921 5918 5916 5914 5912 5910 5909 5907 5905 5903 5901 5899 5897 5895
5939 5940 5941 5942 5942 5941 5940 5940 5939 5938 5938 5937 5936 5935 5934 5932 5931 5929 5928 5927 5927 5924 5922 5920 5919 5916 5914 5913 5911 5910 5909 5907 5906 5905 5903 5901 5899 5896
5935 5935 5937 5938 5938 5938 5938 5937 5936 5936 5936 5934 5933 5932 5931 5931 5930 5928 5927 5924 5923 5921 5920 5919 5918 5915 5913 5912 5910 5908 5907 5906 5905 5905 5903 5900 5899 5898
5931 5932 5932 5932 5933 5934 5934 5933 5933 5933 5932 5931 5931 5931 5930 5929 5928 5926 5924 5922 5921 5919 5919 5916 5914 5912 5911 5909 5908 5908 5906 5905 5903 5902 5902 5901 5899 5897
5928 5927 5928 5929 5929 5930 5930 5930 5930 5929 5929 5929 5928 5927 5926 5925 5923 5922 5922 5920 5919 5918 5918 5914 5911 5909 5907 5905 5904 5903 5902 5901 5901 5900 5899 5897 5896 5895
5924 5923 5923 5923 5923 5923 5923 5923 5924 5924 5924 5924 5923 5922 5921 5919 5918 5918 5917 5916 5916 5913 5912 5910 5907 5907 5906 5904 5903 5901 5900 5899 5897 5895 5894 5893 5892 5891
5917 5918 5917 5917 5917 5918 5918 5917 5917 5916 5916 5916 5916 5916 5915 5913 5912 5912 5910 5909 5909 5907 5906 5904 5900 5901 5899 5898 5898 5897 5895 5894 5894 5893 5891 5887 5886 5885
5911 5910 5911 5910 5910 5910 5910 5909 5909 5909 5908 5909 5909 5909 5908 5907 5906 5906 5904 5903 5903 5900 5899 5897 5893 5892 5892 5891 5891 5890 5889 5887 5887 5886 5885 5884 5881 5879
5902 5903 5902 5902 5901 5900 5900 5900 5901 5901 5901 5900 5901 5901 5900 5899 5898 5897 5897 5897 5897 5895 5892 5891 5887 5883 5884 5882 5881 5880 5881 5880 5878 5877 5876 5874 5871 5871
5894 5895 5896 5895 5894 5894 5893 5892 5891 5892 5892 5892 5892 5892 5892 5891 5888 5887 5886 5886 5888 5887 5885 5883 5882 5877 5873 5874 5873 5873 5869 5868 5869 5868 5867 5865 5863 5861
5888 5887 5887 5888 5887 5887 5886 5884 5882 5881 5881 5881 5881 5881 5880 5880 5878 5877 5876 5876 5873 5875 5875 5873 5871 5870 5867 5864 5862 5862 5862 5859 5858 5857 5856 5856 5854 5852
5881 5880 5880 5880 5880 5879 5878 5877 5874 5873 5873 5871 5870 5870 5870 5870 5869 5868 5867 5865 5864 5863 5863 5862 5861 5860 5858 5856 5854 5852 5852 5850 5848 5846 5846 5844 5844 5844
5870 5870 5870 5869 5869 5868 5867 5866 5864 5861 5861 5862 5861 5861 5861 5860 5858 5858 5857 5858 5857 5856 5855 5854 5853 5851 5848 5848 5847 5844 5844 5842 5841 5839 5835 5832 5830 5829
5860 5859 5859 5859 5858 5857 5856 5854 5852 5850 5850 5849 5849 5848 5848 5848 5849 5849 5847 5846 5846 5847 5845 5843 5843 5842 5841 5840 5838 5836 5834 5831 5831 5830 5826 5823 5820 5817
5848 5848 5848 5847 5847 5845 5844 5842 5841 5840 5840 5839 5838 5838 5836 5836 5836 5836 5836 5836 5834 5833 5832 5831 5830 5829 5828 5826 5825 5824 5823 5822 5818 5816 5814 5810 5807 5803
5835 5834 5834 5833 5833 5832 5831 5830 5829 5828 5828 5827 5827 5826 5824 5824 5823 5822 5821 5820 5820 5819 5817 5816 5814 5813 5811 5808 5806 5804 5803 5802 5800 5800 5799 5795 5789 5787
5820 5820 5819 5818 5818 5818 5817 5816 5816 5815 5815 5814 5813 5812 5811 5810 5809 5807 5806 5804 5804 5803 5800 5799 5795 5792 5789 5788 5783 5782 5780 5778 5776 5773 5771 5771 5769 5764
5804 5803 5803 5802 5802 5802 5801 5800 5800 5800 5799 5799 5798 5796 5796 5794 5794 5793 5791 5790 5789 5787 5785 5783 5780 5776 5772 5769 5764 5762 5761 5759 5756 5752 5749 5747 5746 5741
5787 5786 5785 5785 5785 5785 5784 5783 5784 5783 5782 5781 5781 5779 5777 5775 5774 5773 5771 5770 5768 5766 5765 5763 5760 5758 5755 5752 5748 5742 5741 5739 5737 5733 5730 5727 5724 5720
5769 5769 5769 5768 5768 5769 5767 5767 5766 5765 5765 5763 5762 5760 5758 5757 5757 5756 5754 5752 5750 5748 5746 5745 5743 5740 5737 5733 5729 5724 5718 5715 5712 5708 5705 5703 5702 5699
5754 5754 5754 5752 5752 5752 5751 5751 5751 5750 5748 5748 5746 5744 5742 5741 5740 5739 5737 5734 5732 5731 5729 5727 5724 5722 5718 5714 5709 5705 5701 5695 5689 5683 5678 5673 5670 5669
5735 5735 5735 5735 5735 5735 5734 5734 5734 5734 5733 5732 5730 5729 5727 5726 5724 5723 5721 5719 5716 5714 5711 5708 5705 5702 5697 5693 5689 5685 5681 5676 5671 5666 5659 5654 5650 5645